Location: Unspecified
(0.0000°N, 0.0000°E)
Time: 20:18:02
(UTC+00:00)

Explorer 7 - Pass Details

Date: 24 June 2025
Orbit: 444 x 569 km, 50.3° (Epoch: 12 July)

Event Time Altitude Azimuth Distance (km) Brightness Sun altitude
Rises 09:46:05 0° 226° (SW) 2,750 10.0 49.5°
Reaches altitude 10° 09:48:25 10° 231° (SW) 1,840 9.2 49.9°
Maximum altitude 09:52:29 49° 306° (NW) 702 7.9 50.7°
Drops below altitude 10° 09:56:25 10° 22° (NNE) 1,772 10.1 51.5°
Sets 09:58:38 0° 28° (NNE) 2,636 10.8 51.9°
